TITAN 3C TRANSTAGE DEB, 5515

Orbit data source: Space-Track

TITAN 3C TRANSTAGE DEB, 5515 is space debris in HEO originally from a launch on Tue, 21 Dec 1965 UTC launched from the Air Force Eastern Test Range (AFETR). Debris objects in space refer to the collection of defunct objects orbiting the Earth. Examples of debris include non-operational satellites, rocket bodies, and fragments generated from explosions, collisions, or faulty payload assembly.

Loading next visibility...
Identifier
5515, 1965-108M
Orbit
HEO
Country
Flag of USUS
Related business
Manufacturer
Unknown
Mission
Spacecraft
Bus & Motor
Unknown
Mass
Unknown
Launch date (UTC)
1965-12-21 (60 years ago)
Launch vehicle
Unknown
Launch site
Air Force Eastern Test Range (AFETR)
Object type
Payload
Rocket body
Debris
Shape & HBR
Unknown shape, 1.1 m
Radar Cross Section
Medium (>0.1 m² and <1 m²)

Expand to show TLE details & history
Last TLE update: 11 months ago

TLE from 11 months ago
0 TITAN 3C TRANSTAGE DEB
1  5515U 65108M   25213.80721609 -.00000039  00000-0  00000+0 0  9994
2  5515  27.9057  51.9069 6616372 147.4308 353.0230  2.65898456210783
Epoch: 2025-08-01T19:22Z
TLE epoch observation values (Epoch: 2025-08-01T19:22:23.470Z)
Latitude
26.92057°
Longitude
-81.98228°
Altitude
1,926.722 km
Speed
8.827 km/s
True Right ascension
10h 37m 04s
True Declination
26° 48' 05"
Sunlit
Object was in daylight at epoch
Visualization orbit readout
Latitude
Unknown
Longitude
Unknown
Altitude
Unknown
Speed
Unknown
Apparent Right ascension
Unknown
Apparent Declination
Unknown
Sunlit
N/A
Visualization observer readout
Local Sidereal Time
00:28:18
Azimuth
Unknown
Elevation
Unknown
Doppler factor
Unknown
Orbital elements
Apogee altitude
30,197.396 km
Perigee altitude
1,069.818 km
Semi-major axis
22,011.744 km
Eccentricity
0.66164
Inclination
27.9057°
RAAN
51.9069°
Arg. of periapsis
147.4308°
True anomaly
317.61519°
Mean anomaly
353.023°
Eccentric anomaly
340.15174°
Mean motion
0.6646 °/min
Orbital period
541.68 mins
BSTAR
0
Loading maneuver chart data...
Computing Atmospheric mass density...

Documentation

Showing up to 5 results
|